Home > Weather > Miskolc > Past weeks

Flag for Hungary Weather for the Past 2 Weeks in Miskolc, Hungary

Now
36 °F

Passing clouds.


Feels Like: 36 °F
Forecast: 26 / 42 °F
Wind: 2 mph from South

Location: Miskolc

Current Time: Feb 5, 2016 at 11:51:39 PM

Latest Report: Feb 5, 2016 at 10:00 PM


Visibility: 19 mi

Pressure: 30.36 "Hg

Humidity: 69%

Dew point: 27 °F

Location of MiskolcLocation

Historic Weather in Miskolc — Graph

°F

Miskolc Temperature Yesterday

Maximum temperature yesterday: 47 °F (at 1:00 PM)
Minimum temperature yesterday: 32 °F (at 7:00 AM)
Average temperature yesterday: 40 °F

High & Low Weather Summary for the Past Weeks

 TemperatureHumidityPressure
High53 °F (Feb 3, 1:00 PM)91% (Jan 26, 7:00 AM)30.66 "Hg (Jan 26, 7:00 AM)
Low9 °F (Jan 23, 7:00 AM)40% (Feb 4, 2:00 PM)29.82 "Hg (Jan 31, 7:00 AM)
Average32 °F80%30.30 "Hg
* Reported Jan 22 2:00 AM — Feb 5 10:00 PM, Miskolc, Weather by CustomWeather, © 2016

Note: Actual official high and low records may vary slightly from our data, if they occured in-between our weather recording intervals... More about our weather records

Advertising

Miskolc Weather History for the Previous 24 Hours

 ConditionsComfort  
Time TempWeatherWind HumidityBarometerVisibility
10:00 PM
Fri, Feb 5
36 °FPassing clouds.2 mph69%30.36 "Hg19 mi
9:00 PM37 °FOvercast.3 mph68%30.36 "Hg19 mi
8:00 PM37 °FOvercast.1 mph69%30.36 "Hg19 mi
7:00 PM34 °FPassing clouds.1 mph70%30.34 "Hg19 mi
6:00 PM38 °FPassing clouds.1 mph60%30.32 "Hg19 mi
5:00 PM40 °FOvercast.1 mph54%30.30 "Hg22 mi
4:00 PM42 °FOvercast.1 mph54%30.29 "Hg22 mi
3:00 PM42 °FOvercast.1 mph56%30.28 "Hg25 mi
2:00 PM43 °FScattered clouds.1 mph56%30.27 "Hg25 mi
1:00 PM42 °FPartly sunny.2 mph59%30.27 "Hg25 mi
12:00 PM42 °FPartly sunny.3 mph58%30.27 "Hg25 mi
11:00 AM41 °FPassing clouds.2 mph58%30.26 "Hg25 mi
10:00 AM40 °FPassing clouds.3 mph63%30.23 "Hg25 mi
9:00 AM33 °FPassing clouds.No wind81%30.22 "Hg19 mi
8:00 AM29 °FScattered clouds.No wind85%30.20 "Hg19 mi
7:00 AM29 °FOvercast.No wind84%30.17 "Hg16 mi
11:00 PM
Thu, Feb 4
38 °FClear.3 mph57%30.09 "Hg19 mi
Weather by CustomWeather, © 2016

See weather overviewHow to use our weather pages